Time,TemperatureF,DewpointF,PressureIn,WindDirection,WindDirectionDegrees,WindSpeedMPH,WindSpeedGustMPH,Humidity,HourlyPrecipIn,Conditions,Clouds,dailyrainin,SoftwareType,DateUTC
2013-06-17 00:05:00,79.4,71.6,29.86,South,171,3.0,5.0,77,0.00,,,0.00,Wunderground v.1.15,2013-06-17 05:05:00,
2013-06-17 00:10:00,79.2,71.4,29.87,South,169,3.0,5.0,77,0.00,,,0.00,Wunderground v.1.15,2013-06-17 05:10:00,
2013-06-17 00:20:00,78.8,71.4,29.87,SSE,168,4.0,4.0,78,0.00,,,0.00,Wunderground v.1.15,2013-06-17 05:20:00,
2013-06-17 00:25:00,78.6,71.2,29.87,SSE,168,4.0,4.0,78,0.00,,,0.00,Wunderground v.1.15,2013-06-17 05:25:00,
2013-06-17 00:35:00,78.5,71.1,29.88,SSE,168,2.0,5.0,78,0.00,,,0.00,Wunderground v.1.15,2013-06-17 05:35:00,
2013-06-17 00:40:00,78.3,70.9,29.88,SSE,155,4.0,4.0,78,0.00,,,0.00,Wunderground v.1.15,2013-06-17 05:40:00,
2013-06-17 00:50:00,77.9,70.9,29.88,SSE,158,3.0,3.0,79,0.00,,,0.00,Wunderground v.1.15,2013-06-17 05:50:00,
2013-06-17 00:55:00,77.7,70.7,29.88,SSE,158,2.0,3.0,79,0.00,,,0.00,Wunderground v.1.15,2013-06-17 05:55:00,
2013-06-17 01:05:00,77.6,70.9,29.88,SSE,160,3.0,5.0,80,0.00,,,0.00,Wunderground v.1.15,2013-06-17 06:05:00,
2013-06-17 01:10:00,77.4,70.7,29.87,SSE,160,3.0,4.0,80,0.00,,,0.00,Wunderground v.1.15,2013-06-17 06:10:00,
2013-06-17 01:20:00,77.2,70.9,29.87,SSE,162,3.0,7.0,81,0.00,,,0.00,Wunderground v.1.15,2013-06-17 06:20:00,
2013-06-17 01:25:00,77.0,70.7,29.87,SSE,162,3.0,7.0,81,0.00,,,0.00,Wunderground v.1.15,2013-06-17 06:25:00,
2013-06-17 01:35:00,76.8,70.5,29.88,SSE,162,3.0,3.0,81,0.00,,,0.00,Wunderground v.1.15,2013-06-17 06:35:00,
2013-06-17 01:40:00,76.7,70.4,29.88,SSE,162,3.0,7.0,81,0.00,,,0.00,Wunderground v.1.15,2013-06-17 06:40:00,
2013-06-17 01:50:00,76.5,70.6,29.88,SSE,162,3.0,7.0,82,0.00,,,0.00,Wunderground v.1.15,2013-06-17 06:50:00,
2013-06-17 01:55:00,76.3,70.4,29.88,SSE,164,3.0,7.0,82,0.00,,,0.00,Wunderground v.1.15,2013-06-17 06:55:00,
2013-06-17 02:05:00,76.1,70.6,29.88,SSE,162,3.0,3.0,83,0.00,,,0.00,Wunderground v.1.15,2013-06-17 07:05:00,
2013-06-17 02:10:00,76.1,70.6,29.88,SSE,164,3.0,3.0,83,0.00,,,0.00,Wunderground v.1.15,2013-06-17 07:10:00,
2013-06-17 02:20:00,75.8,70.3,29.88,SSE,164,2.0,5.0,83,0.00,,,0.00,Wunderground v.1.15,2013-06-17 07:20:00,
2013-06-17 02:25:00,75.8,70.3,29.87,SSE,164,3.0,5.0,83,0.00,,,0.00,Wunderground v.1.15,2013-06-17 07:25:00,
2013-06-17 02:35:00,75.6,70.4,29.87,SSE,164,4.0,4.0,84,0.00,,,0.00,Wunderground v.1.15,2013-06-17 07:35:00,
2013-06-17 02:40:00,75.4,70.2,29.87,SSE,165,3.0,3.0,84,0.00,,,0.00,Wunderground v.1.15,2013-06-17 07:40:00,
2013-06-17 02:50:00,75.3,70.1,29.87,SSE,165,4.0,4.0,84,0.00,,,0.00,Wunderground v.1.15,2013-06-17 07:50:00,
2013-06-17 02:55:00,75.3,70.5,29.87,SSE,165,3.0,4.0,85,0.00,,,0.00,Wunderground v.1.15,2013-06-17 07:55:00,
2013-06-17 03:05:00,75.1,70.6,29.87,SSE,165,2.0,6.0,86,0.00,,,0.00,Wunderground v.1.15,2013-06-17 08:05:00,
2013-06-17 03:10:00,75.1,70.6,29.87,SSE,165,3.0,3.0,86,0.00,,,0.00,Wunderground v.1.15,2013-06-17 08:10:00,
2013-06-17 03:20:00,74.9,70.4,29.86,SSE,165,4.0,8.0,86,0.00,,,0.00,Wunderground v.1.15,2013-06-17 08:20:00,
2013-06-17 03:25:00,74.9,70.4,29.86,SSE,165,5.0,8.0,86,0.00,,,0.00,Wunderground v.1.15,2013-06-17 08:25:00,
2013-06-17 03:35:00,74.9,70.4,29.85,SSE,165,3.0,4.0,86,0.00,,,0.00,Wunderground v.1.15,2013-06-17 08:35:00,
2013-06-17 03:40:00,74.7,70.2,29.85,SSE,165,3.0,3.0,86,0.00,,,0.00,Wunderground v.1.15,2013-06-17 08:40:00,
2013-06-17 03:50:00,74.7,70.2,29.84,SSE,165,3.0,10.0,86,0.00,,,0.00,Wunderground v.1.15,2013-06-17 08:50:00,
2013-06-17 03:55:00,74.7,70.2,29.85,SSE,165,3.0,10.0,86,0.00,,,0.00,Wunderground v.1.15,2013-06-17 08:55:00,
2013-06-17 04:05:00,74.7,70.2,29.86,SSE,165,3.0,3.0,86,0.00,,,0.00,Wunderground v.1.15,2013-06-17 09:05:00,
2013-06-17 04:10:00,74.7,70.2,29.85,SSE,165,4.0,4.0,86,0.00,,,0.00,Wunderground v.1.15,2013-06-17 09:10:00,
2013-06-17 04:20:00,74.7,70.2,29.84,SSE,167,4.0,4.0,86,0.00,,,0.00,Wunderground v.1.15,2013-06-17 09:20:00,
2013-06-17 04:25:00,74.7,70.2,29.84,SSE,167,4.0,8.0,86,0.00,,,0.00,Wunderground v.1.15,2013-06-17 09:25:00,
2013-06-17 04:35:00,74.6,70.1,29.85,SSE,167,4.0,8.0,86,0.00,,,0.00,Wunderground v.1.15,2013-06-17 09:35:00,
2013-06-17 04:40:00,74.6,70.1,29.85,SSE,167,4.0,6.0,86,0.00,,,0.00,Wunderground v.1.15,2013-06-17 09:40:00,
2013-06-17 04:50:00,74.4,69.9,29.85,SSE,167,4.0,4.0,86,0.00,,,0.00,Wunderground v.1.15,2013-06-17 09:50:00,
2013-06-17 04:55:00,74.4,69.9,29.86,SSE,167,3.0,4.0,86,0.00,,,0.00,Wunderground v.1.15,2013-06-17 09:55:00,
2013-06-17 05:05:00,74.4,69.9,29.86,SSE,167,4.0,10.0,86,0.00,,,0.00,Wunderground v.1.15,2013-06-17 10:05:00,
2013-06-17 05:10:00,74.4,69.9,29.86,SSE,168,4.0,4.0,86,0.00,,,0.00,Wunderground v.1.15,2013-06-17 10:10:00,
2013-06-17 05:20:00,74.4,69.9,29.86,SSE,168,4.0,4.0,86,0.00,,,0.00,Wunderground v.1.15,2013-06-17 10:20:00,
2013-06-17 05:25:00,74.4,69.9,29.87,South,171,4.0,10.0,86,0.00,,,0.00,Wunderground v.1.15,2013-06-17 10:25:00,
2013-06-17 05:35:00,74.4,69.6,29.87,South,172,5.0,5.0,85,0.00,,,0.00,Wunderground v.1.15,2013-06-17 10:35:00,
2013-06-17 05:40:00,74.4,69.6,29.87,South,172,4.0,4.0,85,0.00,,,0.00,Wunderground v.1.15,2013-06-17 10:40:00,
2013-06-17 05:50:00,74.4,69.6,29.87,South,172,5.0,5.0,85,0.00,,,0.00,Wunderground v.1.15,2013-06-17 10:50:00,
2013-06-17 05:55:00,74.4,69.6,29.87,South,172,5.0,5.0,85,0.00,,,0.00,Wunderground v.1.15,2013-06-17 10:55:00,
2013-06-17 06:05:00,74.4,69.6,29.88,South,174,5.0,5.0,85,0.00,,,0.00,Wunderground v.1.15,2013-06-17 11:05:00,
2013-06-17 06:10:00,74.2,69.4,29.88,South,174,4.0,4.0,85,0.00,,,0.00,Wunderground v.1.15,2013-06-17 11:10:00,
2013-06-17 06:20:00,74.2,69.4,29.88,South,174,3.0,7.0,85,0.00,,,0.00,Wunderground v.1.15,2013-06-17 11:20:00,
2013-06-17 06:25:00,74.0,69.2,29.88,South,174,2.0,7.0,85,0.00,,,0.00,Wunderground v.1.15,2013-06-17 11:25:00,
2013-06-17 06:35:00,74.0,69.2,29.89,South,174,3.0,3.0,85,0.00,,,0.00,Wunderground v.1.15,2013-06-17 11:35:00,
2013-06-17 06:40:00,74.0,69.2,29.89,South,174,2.0,5.0,85,0.00,,,0.00,Wunderground v.1.15,2013-06-17 11:40:00,
2013-06-17 06:50:00,74.0,69.2,29.89,South,174,2.0,5.0,85,0.00,,,0.00,Wunderground v.1.15,2013-06-17 11:50:00,
2013-06-17 06:55:00,74.0,69.2,29.89,South,174,2.0,7.0,85,0.00,,,0.00,Wunderground v.1.15,2013-06-17 11:55:00,
2013-06-17 07:05:00,74.0,69.5,29.89,South,174,2.0,2.0,86,0.00,,,0.00,Wunderground v.1.15,2013-06-17 12:05:00,
2013-06-17 07:10:00,74.0,69.5,29.89,South,174,1.0,2.0,86,0.00,,,0.00,Wunderground v.1.15,2013-06-17 12:10:00,
2013-06-17 07:20:00,74.0,69.5,29.89,South,174,2.0,2.0,86,0.00,,,0.00,Wunderground v.1.15,2013-06-17 12:20:00,
2013-06-17 07:25:00,74.0,69.5,29.89,South,174,2.0,2.0,86,0.00,,,0.00,Wunderground v.1.15,2013-06-17 12:25:00,
2013-06-17 07:35:00,74.2,69.7,29.89,South,174,3.0,3.0,86,0.00,,,0.00,Wunderground v.1.15,2013-06-17 12:35:00,
2013-06-17 07:40:00,74.4,69.9,29.89,South,174,3.0,3.0,86,0.00,,,0.00,Wunderground v.1.15,2013-06-17 12:40:00,
2013-06-17 07:50:00,74.7,69.9,29.89,South,174,2.0,2.0,85,0.00,,,0.00,Wunderground v.1.15,2013-06-17 12:50:00,
2013-06-17 07:55:00,74.9,69.7,29.90,South,174,2.0,2.0,84,0.00,,,0.00,Wunderground v.1.15,2013-06-17 12:55:00,
2013-06-17 08:05:00,75.4,69.9,29.90,South,175,1.0,2.0,83,0.00,,,0.00,Wunderground v.1.15,2013-06-17 13:05:00,
2013-06-17 08:10:00,75.8,69.9,29.90,South,175,2.0,2.0,82,0.00,,,0.00,Wunderground v.1.15,2013-06-17 13:10:00,
2013-06-17 08:20:00,76.3,70.0,29.90,South,176,2.0,2.0,81,0.00,,,0.00,Wunderground v.1.15,2013-06-17 13:20:00,
2013-06-17 08:25:00,76.7,70.1,29.90,South,176,2.0,3.0,80,0.00,,,0.00,Wunderground v.1.15,2013-06-17 13:25:00,
2013-06-17 08:35:00,77.4,71.1,29.91,South,179,2.0,13.0,81,0.00,,,0.00,Wunderground v.1.15,2013-06-17 13:35:00,
2013-06-17 08:40:00,77.6,69.8,29.91,South,182,3.0,3.0,77,0.00,,,0.00,Wunderground v.1.15,2013-06-17 13:40:00,
2013-06-17 08:50:00,77.9,70.9,29.91,South,185,4.0,4.0,79,0.00,,,0.00,Wunderground v.1.15,2013-06-17 13:50:00,
2013-06-17 08:55:00,78.3,70.5,29.92,South,185,2.0,4.0,77,0.00,,,0.00,Wunderground v.1.15,2013-06-17 13:55:00,
2013-06-17 09:05:00,79.0,70.8,29.93,South,185,3.0,3.0,76,0.00,,,0.00,Wunderground v.1.15,2013-06-17 14:05:00,
2013-06-17 09:10:00,79.2,71.4,29.94,South,185,2.0,2.0,77,0.00,,,0.00,Wunderground v.1.15,2013-06-17 14:10:00,
2013-06-17 09:20:00,79.8,70.4,29.94,South,185,2.0,8.0,73,0.00,,,0.00,Wunderground v.1.15,2013-06-17 14:20:00,
2013-06-17 09:25:00,80.1,70.7,29.94,South,185,3.0,8.0,73,0.00,,,0.00,Wunderground v.1.15,2013-06-17 14:25:00,
2013-06-17 09:35:00,80.3,70.4,29.94,South,186,3.0,11.0,72,0.00,,,0.00,Wunderground v.1.15,2013-06-17 14:35:00,
2013-06-17 09:40:00,80.3,70.9,29.95,South,186,3.0,4.0,73,0.00,,,0.00,Wunderground v.1.15,2013-06-17 14:40:00,
2013-06-17 09:50:00,80.1,69.8,29.95,South,186,3.0,3.0,71,0.00,,,0.00,Wunderground v.1.15,2013-06-17 14:50:00,
2013-06-17 09:55:00,80.1,70.3,29.95,South,186,2.0,3.0,72,0.00,,,0.00,Wunderground v.1.15,2013-06-17 14:55:00,
2013-06-17 10:00:00,80.3,70.0,29.95,South,186,1.0,1.0,71,0.00,,,0.00,Wunderground v.1.15,2013-06-17 15:00:00,
2013-06-17 10:10:00,80.5,70.2,29.94,South,186,2.0,3.0,71,0.00,,,0.00,Wunderground v.1.15,2013-06-17 15:10:00,
2013-06-17 10:20:00,81.1,70.4,29.94,South,186,2.0,2.0,70,0.00,,,0.00,Wunderground v.1.15,2013-06-17 15:20:00,
2013-06-17 10:25:00,81.2,69.6,29.93,South,186,2.0,2.0,68,0.00,,,0.00,Wunderground v.1.15,2013-06-17 15:25:00,
2013-06-17 10:35:00,82.4,69.9,29.93,South,186,2.0,7.0,66,0.00,,,0.00,Wunderground v.1.15,2013-06-17 15:35:00,
2013-06-17 10:40:00,83.0,71.3,29.93,South,186,3.0,3.0,68,0.00,,,0.00,Wunderground v.1.15,2013-06-17 15:40:00,
2013-06-17 10:50:00,84.3,70.8,29.93,South,186,4.0,4.0,64,0.00,,,0.00,Wunderground v.1.15,2013-06-17 15:50:00,
2013-06-17 10:55:00,84.9,70.4,29.92,South,186,3.0,4.0,62,0.00,,,0.00,Wunderground v.1.15,2013-06-17 15:55:00,
2013-06-17 11:05:00,86.1,71.1,29.93,South,186,3.0,3.0,61,0.00,,,0.00,Wunderground v.1.15,2013-06-17 16:05:00,
2013-06-17 11:10:00,86.5,71.5,29.93,South,186,3.0,3.0,61,0.00,,,0.00,Wunderground v.1.15,2013-06-17 16:10:00,
2013-06-17 11:20:00,87.6,69.4,29.92,South,186,2.0,5.0,55,0.00,,,0.00,Wunderground v.1.15,2013-06-17 16:20:00,
2013-06-17 11:25:00,88.0,69.8,29.92,South,186,2.0,5.0,55,0.00,,,0.00,Wunderground v.1.15,2013-06-17 16:25:00,
2013-06-17 11:35:00,89.0,70.2,29.91,SSW,193,4.0,5.0,54,0.00,,,0.00,Wunderground v.1.15,2013-06-17 16:35:00,
2013-06-17 11:45:00,89.5,69.0,29.91,SSW,193,4.0,5.0,51,0.00,,,0.00,Wunderground v.1.15,2013-06-17 16:45:00,
2013-06-17 11:50:00,89.7,70.3,29.91,SSW,193,3.0,5.0,53,0.00,,,0.00,Wunderground v.1.15,2013-06-17 16:50:00,
2013-06-17 11:55:00,90.1,70.1,29.91,SSW,192,3.0,5.0,52,0.00,,,0.00,Wunderground v.1.15,2013-06-17 16:55:00,
2013-06-17 12:05:00,90.5,69.3,29.91,South,191,4.0,4.0,50,0.00,,,0.00,Wunderground v.1.15,2013-06-17 17:05:00,
2013-06-17 12:10:00,91.0,68.6,29.90,South,189,4.0,4.0,48,0.00,,,0.00,Wunderground v.1.15,2013-06-17 17:10:00,
2013-06-17 12:20:00,91.6,69.7,29.90,South,186,3.0,7.0,49,0.00,,,0.00,Wunderground v.1.15,2013-06-17 17:20:00,
2013-06-17 12:25:00,91.8,69.3,29.90,South,185,3.0,7.0,48,0.00,,,0.00,Wunderground v.1.15,2013-06-17 17:25:00,
2013-06-17 12:35:00,91.0,69.8,29.90,South,186,3.0,7.0,50,0.00,,,0.00,Wunderground v.1.15,2013-06-17 17:35:00,
2013-06-17 12:40:00,91.2,70.0,29.90,South,186,4.0,4.0,50,0.00,,,0.00,Wunderground v.1.15,2013-06-17 17:40:00,
2013-06-17 12:50:00,92.3,67.9,29.89,South,186,3.0,3.0,45,0.00,,,0.00,Wunderground v.1.15,2013-06-17 17:50:00,
2013-06-17 12:55:00,92.5,69.3,29.89,South,186,3.0,9.0,47,0.00,,,0.00,Wunderground v.1.15,2013-06-17 17:55:00,
2013-06-17 13:05:00,93.2,69.3,29.89,South,186,2.0,2.0,46,0.00,,,0.00,Wunderground v.1.15,2013-06-17 18:05:00,
2013-06-17 13:10:00,93.4,69.5,29.88,South,185,2.0,2.0,46,0.00,,,0.00,Wunderground v.1.15,2013-06-17 18:10:00,
2013-06-17 13:20:00,93.4,69.5,29.88,South,174,3.0,3.0,46,0.00,,,0.00,Wunderground v.1.15,2013-06-17 18:20:00,
2013-06-17 13:25:00,92.9,68.4,29.88,South,175,3.0,3.0,45,0.00,,,0.00,Wunderground v.1.15,2013-06-17 18:25:00,
2013-06-17 13:35:00,93.4,66.9,29.88,SSE,150,5.0,5.0,42,0.00,,,0.00,Wunderground v.1.15,2013-06-17 18:35:00,
2013-06-17 13:40:00,93.6,67.7,29.87,SSE,154,4.0,9.0,43,0.00,,,0.00,Wunderground v.1.15,2013-06-17 18:40:00,
2013-06-17 13:50:00,94.0,68.1,29.86,SSE,160,5.0,7.0,43,0.00,,,0.00,Wunderground v.1.15,2013-06-17 18:50:00,
2013-06-17 13:55:00,94.3,67.0,29.86,SSE,161,4.0,7.0,41,0.00,,,0.00,Wunderground v.1.15,2013-06-17 18:55:00,
2013-06-17 14:05:00,94.5,67.9,29.86,SSE,168,5.0,6.0,42,0.00,,,0.00,Wunderground v.1.15,2013-06-17 19:05:00,
2013-06-17 14:10:00,94.3,69.0,29.85,South,169,5.0,12.0,44,0.00,,,0.00,Wunderground v.1.15,2013-06-17 19:10:00,
2013-06-17 14:20:00,94.3,69.0,29.85,South,176,5.0,5.0,44,0.00,,,0.00,Wunderground v.1.15,2013-06-17 19:20:00,
2013-06-17 14:25:00,94.3,68.4,29.84,South,176,4.0,8.0,43,0.00,,,0.00,Wunderground v.1.15,2013-06-17 19:25:00,
2013-06-17 14:35:00,94.7,68.0,29.84,South,178,5.0,5.0,42,0.00,,,0.00,Wunderground v.1.15,2013-06-17 19:35:00,
2013-06-17 14:40:00,94.9,68.2,29.84,South,184,3.0,11.0,42,0.00,,,0.00,Wunderground v.1.15,2013-06-17 19:40:00,
2013-06-17 14:50:00,95.1,67.0,29.84,South,185,3.0,4.0,40,0.00,,,0.00,Wunderground v.1.15,2013-06-17 19:50:00,
2013-06-17 14:55:00,95.1,67.0,29.84,South,185,4.0,4.0,40,0.00,,,0.00,Wunderground v.1.15,2013-06-17 19:55:00,
2013-06-17 15:05:00,95.1,64.7,29.84,South,182,2.0,5.0,37,0.00,,,0.00,Wunderground v.1.15,2013-06-17 20:05:00,
2013-06-17 15:10:00,94.9,66.1,29.83,South,182,3.0,8.0,39,0.00,,,0.00,Wunderground v.1.15,2013-06-17 20:10:00,
2013-06-17 15:20:00,94.9,65.3,29.83,South,185,3.0,3.0,38,0.00,,,0.00,Wunderground v.1.15,2013-06-17 20:20:00,
2013-06-17 15:25:00,94.3,66.3,29.83,South,185,3.0,10.0,40,0.00,,,0.00,Wunderground v.1.15,2013-06-17 20:25:00,
2013-06-17 15:35:00,94.3,67.0,29.82,South,185,2.0,8.0,41,0.00,,,0.00,Wunderground v.1.15,2013-06-17 20:35:00,
2013-06-17 15:40:00,94.7,65.1,29.82,South,188,3.0,4.0,38,0.00,,,0.00,Wunderground v.1.15,2013-06-17 20:40:00,
2013-06-17 15:50:00,95.1,66.2,29.82,South,185,3.0,3.0,39,0.00,,,0.00,Wunderground v.1.15,2013-06-17 20:50:00,
2013-06-17 15:55:00,94.9,65.3,29.81,South,186,2.0,3.0,38,0.00,,,0.00,Wunderground v.1.15,2013-06-17 20:55:00,
2013-06-17 16:05:00,94.7,65.1,29.81,South,184,3.0,3.0,38,0.00,,,0.00,Wunderground v.1.15,2013-06-17 21:05:00,
2013-06-17 16:10:00,95.1,67.0,29.81,South,185,1.0,10.0,40,0.00,,,0.00,Wunderground v.1.15,2013-06-17 21:10:00,
2013-06-17 16:20:00,94.7,66.6,29.81,South,186,3.0,4.0,40,0.00,,,0.00,Wunderground v.1.15,2013-06-17 21:20:00,
2013-06-17 16:25:00,94.7,65.9,29.81,South,189,3.0,4.0,39,0.00,,,0.00,Wunderground v.1.15,2013-06-17 21:25:00,
2013-06-17 16:35:00,94.5,64.2,29.81,South,182,2.0,8.0,37,0.00,,,0.00,Wunderground v.1.15,2013-06-17 21:35:00,
2013-06-17 16:40:00,94.3,63.2,29.81,South,182,2.0,8.0,36,0.00,,,0.00,Wunderground v.1.15,2013-06-17 21:40:00,
2013-06-17 16:50:00,93.8,65.8,29.81,South,182,2.0,2.0,40,0.00,,,0.00,Wunderground v.1.15,2013-06-17 21:50:00,
2013-06-17 16:55:00,93.8,65.8,29.80,South,179,1.0,4.0,40,0.00,,,0.00,Wunderground v.1.15,2013-06-17 21:55:00,
2013-06-17 17:05:00,93.6,64.9,29.80,South,181,2.0,2.0,39,0.00,,,0.00,Wunderground v.1.15,2013-06-17 22:05:00,
2013-06-17 17:10:00,93.4,64.7,29.80,South,179,3.0,6.0,39,0.00,,,0.00,Wunderground v.1.15,2013-06-17 22:10:00,
2013-06-17 17:20:00,92.9,64.3,29.80,South,176,2.0,2.0,39,0.00,,,0.00,Wunderground v.1.15,2013-06-17 22:20:00,
2013-06-17 17:25:00,92.7,64.8,29.80,South,171,3.0,3.0,40,0.00,,,0.00,Wunderground v.1.15,2013-06-17 22:25:00,
2013-06-17 17:35:00,92.5,66.1,29.79,South,172,1.0,3.0,42,0.00,,,0.00,Wunderground v.1.15,2013-06-17 22:35:00,
2013-06-17 17:40:00,92.5,65.4,29.79,South,172,3.0,6.0,41,0.00,,,0.00,Wunderground v.1.15,2013-06-17 22:40:00,
2013-06-17 17:50:00,92.1,66.4,29.79,South,172,1.0,1.0,43,0.00,,,0.00,Wunderground v.1.15,2013-06-17 22:50:00,
2013-06-17 17:55:00,91.8,66.8,29.79,South,175,1.0,1.0,44,0.00,,,0.00,Wunderground v.1.15,2013-06-17 22:55:00,
2013-06-17 18:05:00,91.4,65.8,29.79,South,175,1.0,5.0,43,0.00,,,0.00,Wunderground v.1.15,2013-06-17 23:05:00,
2013-06-17 18:10:00,91.2,65.6,29.79,South,175,1.0,1.0,43,0.00,,,0.00,Wunderground v.1.15,2013-06-17 23:10:00,
2013-06-17 18:20:00,91.0,65.4,29.78,South,175,1.0,1.0,43,0.00,,,0.00,Wunderground v.1.15,2013-06-17 23:20:00,
2013-06-17 18:25:00,91.0,64.7,29.78,South,175,1.0,1.0,42,0.00,,,0.00,Wunderground v.1.15,2013-06-17 23:25:00,
2013-06-17 18:35:00,90.7,63.8,29.78,South,175,2.0,2.0,41,0.00,,,0.00,Wunderground v.1.15,2013-06-17 23:35:00,
2013-06-17 18:40:00,90.5,64.9,29.78,South,175,2.0,2.0,43,0.00,,,0.00,Wunderground v.1.15,2013-06-17 23:40:00,
2013-06-17 18:50:00,90.3,63.4,29.78,South,175,1.0,5.0,41,0.00,,,0.00,Wunderground v.1.15,2013-06-17 23:50:00,
2013-06-17 18:55:00,90.3,63.4,29.78,South,175,2.0,5.0,41,0.00,,,0.00,Wunderground v.1.15,2013-06-17 23:55:00,
2013-06-17 19:05:00,90.1,63.9,29.78,South,175,1.0,2.0,42,0.00,,,0.00,Wunderground v.1.15,2013-06-18 00:05:00,
2013-06-17 19:10:00,89.9,63.7,29.79,South,175,1.0,1.0,42,0.00,,,0.00,Wunderground v.1.15,2013-06-18 00:10:00,
2013-06-17 19:20:00,89.5,63.4,29.78,South,175,1.0,1.0,42,0.00,,,0.00,Wunderground v.1.15,2013-06-18 00:20:00,
2013-06-17 19:25:00,89.3,63.2,29.78,South,175,2.0,2.0,42,0.00,,,0.00,Wunderground v.1.15,2013-06-18 00:25:00,
2013-06-17 19:35:00,88.8,62.1,29.78,South,175,2.0,6.0,41,0.00,,,0.00,Wunderground v.1.15,2013-06-18 00:35:00,
2013-06-17 19:40:00,88.6,62.6,29.79,South,175,1.0,5.0,42,0.00,,,0.00,Wunderground v.1.15,2013-06-18 00:40:00,
2013-06-17 19:50:00,88.2,63.5,29.79,South,175,1.0,1.0,44,0.00,,,0.00,Wunderground v.1.15,2013-06-18 00:50:00,
2013-06-17 19:55:00,88.0,64.0,29.79,South,175,1.0,1.0,45,0.00,,,0.00,Wunderground v.1.15,2013-06-18 00:55:00,
2013-06-17 20:05:00,87.4,64.1,29.79,South,175,0.0,1.0,46,0.00,,,0.00,Wunderground v.1.15,2013-06-18 01:05:00,
2013-06-17 20:10:00,87.0,64.9,29.79,South,175,0.0,0.0,48,0.00,,,0.00,Wunderground v.1.15,2013-06-18 01:10:00,
2013-06-17 20:20:00,86.1,65.3,29.80,South,175,0.0,0.0,50,0.00,,,0.00,Wunderground v.1.15,2013-06-18 01:20:00,
2013-06-17 20:25:00,85.7,65.5,29.80,South,175,0.0,0.0,51,0.00,,,0.00,Wunderground v.1.15,2013-06-18 01:25:00,
2013-06-17 20:35:00,84.5,65.5,29.80,South,175,0.0,0.0,53,0.00,,,0.00,Wunderground v.1.15,2013-06-18 01:35:00,
2013-06-17 20:40:00,83.8,65.9,29.80,South,175,0.0,0.0,55,0.00,,,0.00,Wunderground v.1.15,2013-06-18 01:40:00,
2013-06-17 20:50:00,82.2,65.4,29.80,South,175,0.0,0.0,57,0.00,,,0.00,Wunderground v.1.15,2013-06-18 01:50:00,
2013-06-17 20:55:00,81.4,65.7,29.80,South,175,0.0,0.0,59,0.00,,,0.00,Wunderground v.1.15,2013-06-18 01:55:00,
2013-06-17 21:05:00,80.3,65.6,29.80,South,175,0.0,0.0,61,0.00,,,0.00,Wunderground v.1.15,2013-06-18 02:05:00,
2013-06-17 21:10:00,79.9,65.7,29.80,South,175,0.0,0.0,62,0.00,,,0.00,Wunderground v.1.15,2013-06-18 02:10:00,
2013-06-17 21:20:00,79.2,65.5,29.80,South,175,0.0,0.0,63,0.00,,,0.00,Wunderground v.1.15,2013-06-18 02:20:00,
2013-06-17 21:25:00,78.8,65.6,29.81,South,175,0.0,0.0,64,0.00,,,0.00,Wunderground v.1.15,2013-06-18 02:25:00,
2013-06-17 21:35:00,78.3,65.6,29.81,South,175,0.0,0.0,65,0.00,,,0.00,Wunderground v.1.15,2013-06-18 02:35:00,
2013-06-17 21:40:00,78.1,65.4,29.81,South,175,0.0,0.0,65,0.00,,,0.00,Wunderground v.1.15,2013-06-18 02:40:00,
2013-06-17 21:50:00,77.9,65.6,29.82,South,175,0.0,0.0,66,0.00,,,0.00,Wunderground v.1.15,2013-06-18 02:50:00,
2013-06-17 21:55:00,77.7,65.4,29.83,South,175,0.0,0.0,66,0.00,,,0.00,Wunderground v.1.15,2013-06-18 02:55:00,
2013-06-17 22:05:00,77.4,65.6,29.83,South,175,0.0,0.0,67,0.00,,,0.00,Wunderground v.1.15,2013-06-18 03:05:00,
2013-06-17 22:10:00,77.4,66.0,29.84,South,175,0.0,0.0,68,0.00,,,0.00,Wunderground v.1.15,2013-06-18 03:10:00,
2013-06-17 22:20:00,77.2,65.4,29.84,South,175,0.0,0.0,67,0.00,,,0.00,Wunderground v.1.15,2013-06-18 03:20:00,
2013-06-17 22:25:00,77.0,65.2,29.83,South,175,0.0,0.0,67,0.00,,,0.00,Wunderground v.1.15,2013-06-18 03:25:00,
2013-06-17 22:35:00,77.2,65.4,29.84,South,175,1.0,2.0,67,0.00,,,0.00,Wunderground v.1.15,2013-06-18 03:35:00,
2013-06-17 22:40:00,77.7,65.0,29.84,South,175,1.0,1.0,65,0.00,,,0.00,Wunderground v.1.15,2013-06-18 03:40:00,
2013-06-17 22:50:00,78.3,65.6,29.83,South,175,1.0,2.0,65,0.00,,,0.00,Wunderground v.1.15,2013-06-18 03:50:00,
2013-06-17 22:55:00,78.6,65.8,29.85,South,175,1.0,2.0,65,0.00,,,0.00,Wunderground v.1.15,2013-06-18 03:55:00,
2013-06-17 23:05:00,78.8,66.5,29.85,South,175,0.0,0.0,66,0.00,,,0.00,Wunderground v.1.15,2013-06-18 04:05:00,
2013-06-17 23:10:00,79.0,67.5,29.85,South,175,0.0,0.0,68,0.00,,,0.00,Wunderground v.1.15,2013-06-18 04:10:00,
2013-06-17 23:15:00,79.2,67.7,29.85,South,175,0.0,0.0,68,0.00,,,0.00,Wunderground v.1.15,2013-06-18 04:15:00,
2013-06-17 23:20:00,79.2,68.1,29.86,South,175,0.0,0.0,69,0.00,,,0.00,Wunderground v.1.15,2013-06-18 04:20:00,
2013-06-17 23:25:00,79.4,68.8,29.86,South,175,0.0,0.0,70,0.00,,,0.00,Wunderground v.1.15,2013-06-18 04:25:00,
2013-06-17 23:35:00,79.4,69.2,29.86,South,175,0.0,0.0,71,0.00,,,0.00,Wunderground v.1.15,2013-06-18 04:35:00,
2013-06-17 23:40:00,79.6,69.8,29.85,South,175,0.0,0.0,72,0.00,,,0.00,Wunderground v.1.15,2013-06-18 04:40:00,
2013-06-17 23:50:00,79.6,69.8,29.85,South,175,2.0,2.0,72,0.00,,,0.00,Wunderground v.1.15,2013-06-18 04:50:00,
2013-06-17 23:55:00,79.8,70.4,29.85,South,175,2.0,2.0,73,0.00,,,0.00,Wunderground v.1.15,2013-06-18 04:55:00,